Погода в Кислокане

Погода в Кислокане : погода сейчас, прогноз погоды и архив. Всё, что Вы хотите узнать о погоде в Кислокане!

Поиск расширенной информации на нашем сайте:

Другие новости

Новости СМИ2

Главная страница сайта

Новости сайта

03.07.2017

Напоминаем, что на нашем специализированном сайте Метеоцентр.Азия вы можете получить высокодетализированные автоматические прогнозы погоды по пунктам России, СНГ и мира в авиационном формате (включающие направление и скорость ветра, видимость, явления погоды, количество и форму облачности, нижнюю и верхнюю границу облачности).


Погода в Кислокане - сегодня

Время (UTC), дата Ветер
(°,м/с) 
Видим.   Явления Облачность Т
(°С)
Тd
(°С)
f(%) Тe
(°С)
Pmin
(гПа)
dP
(гПа)
Po
(мм)
O2
(г/м3)
Тmin Tmax R s Состояние
почвы
00 18.09.17 120 (ЮВ) 20000 м    3/3 1000 м 
[Sc]
-4.5 -5.4 93 -4  1019.1  0.3  744  305  -6.5         
03 18.09.17 180 (Ю) 20000 м    3/1 1000 м верхняя 
[Sc|Ci fib]
+4.2 -2.6 61 +5  1018.2  744  296           
06 18.09.17 220 (ЮЗ) 20000 м    3/3 1000 м 
[Cu Sc]
+9.9 -4.9 35 +10  1016.3  -1.4  743  289           
09 18.09.17 220 (ЮЗ) 20000 м    9/8 1000 м верхняя 
[Sc|Ci sp]
+8.6 -3.8 41 +9  1015.7  -0.7  743  290           
12 18.09.17 140 (ЮВ) н/о    8/4 1000 м средняя 
[Sc|Ac trans]
-1.2 -5.1 75 -1  1016.1  -0.6  742  301    +10.7       
15 18.09.17 060 (СВ) н/о    10/10 1000 м 
[Sc]
-1.3 -4.3 80 -1  1016.5  0.4  743  301           
18 18.09.17 тихо ()   н/о    10/10 1000 м 
[Sc]
-0.4 -2.8 84 -0  1016.1  -0.3  742  300           
21 18.09.17 тихо ()   н/о    10/10 1000 м 
[Sc]
-0.4 -2.8 84 -0  1015.6  -0.5  742  300           
00 19.09.17 тихо ()   20000 м    10/10 1000 м 
[Sc]
-1.4 -3.1 88 -1  1016.1  0.4  742  301  -4         
03 19.09.17 тихо ()   20000 м    10/10 1000 м 
[Sc]
+4.3 -1.1 68 +4  1015.9  0.4  743  295           
06 19.09.17 140 (ЮВ) 20000 м    9/9 600 м кучево-дожд. 
[Cb cap]
+8.6 -2.3 46 +10  1015.1  -0.4  742  290           
09 19.09.17 090 (В) 20000 м    9/9 1000 м 
[Sc]
+7.6 -3.9 44 +9  1015.1  -0.1  742  291           
12 19.09.17 тихо ()   н/о    8/4 1000 м средняя 
[Sc|Ac trans]
-1.3 -5.6 72 -1  1016.7  0.7  743  301    +9.7       
15 19.09.17 тихо ()   н/о    ясно 
-5.4 -6.1 95 -5  1017.9  0.8  743  306           
18 19.09.17 тихо ()   н/о    ясно 
-7.7 -8.7 93 -8  1018.7  0.6  744  309           
21 19.09.17 тихо ()   н/о    ясно 
-10.2 -10.8 95 -10  1019  744  312           
00 20.09.17 тихо ()   4000 м  дымка  ясно 
-8.4 -9.5 92 -8  1019.5  0.7  744  310  -10.8         
03 20.09.17 340 (С) 20000 м    ясно 
+2 -3.9 65 +3  1018.2  -0.2  744  298           
06 20.09.17 350 (С) 20000 м    1/1 600 м 
[Cu hum]
+7.4 -5 41 +7  1016.5  -1.2  743  292           
09 20.09.17 340 (С) 20000 м    1/0 верхняя 
[Ci fib]
+8.4 -5.4 37 +8  1015.3  -1.1  742  291           
12 20.09.17 тихо ()   н/о    4/3 1000 м верхняя 
[Sc|Ci fib]
-1.4 -7.4 64 -1  1016.2  -0.1  742  301    +8.7       
15 20.09.17 тихо ()   н/о    ясно 
-5 -7.8 81 -5  1016.7  0.1  742  305           
18 20.09.17 тихо ()   н/о    ясно 
-6.1 -7.6 89 -6  1016.2  -0.6  742  307           
21 20.09.17 тихо ()   н/о    3/3 1000 м 
[Sc]
-6.7 -7.9 91 -7  1015.2  -1  741  307           
00 21.09.17 тихо ()   20000 м    10/5 1000 м верхняя 
[Sc|Ci sp]
-5.6 -6.7 92 -6  1014.7  -0.4  741  305  -7.4         
Время (UTC), дата Ветер
(°,м/с) 
Видим.   Явления Облачность Т
(°С)
Тd
(°С)
f(%) Тe
(°С)
Pmin
(гПа)
dP
(гПа)
Po
(мм)
O2
(г/м3)
Тmin Tmax R s Состояние
почвы

Для получения пояснительной информации подведите курсор к названию столбца.

ПОГОДА в Кислокане - архив

Всё, что Вы хотите узнать о погоде в Кислокане - удобно и подробно!

Выберите нужную дату (начиная с 1 января 2015* года) и нажмите кнопку "Найти".
Будут отображены архивные сводки погоды по пункту Кислокан, начиная с указанной даты.


Отображать данные в формате CSV (для использования в таблицах Excel)


Внимание! Наш архив погоды предназначен исключительно для личного некоммерческого использования в познавательных целях. Если Вам необходимы официальные справки о состоянии погоды (для производственных, юридических, коммерческих и т.п. целей), обращайтесь в органы Росгидромета.

*Примечание: данная дата относится к архиву по метеостанциям СССР (Россия, СНГ, Балтия).
Архив по метеостанциям Зарубежной Европы и Азии (кроме Китая) хранится 10 дней, по другим регионам земного шара (Китай, Африка, Америка, Австралия, Океания) - 1 день.

Кислокан - район местоположения метеостанции


Название, широта, долгота, высота метеостанции:
Кислокан 63.6°ш. 104°д. 209 м над ур. моря [Российская Федерация]

Дополнительная информация

В oтличие oт бoльшинства пoгoдных сайтoв мы публикуем пoдрoбную метеoинфoрмацию в детальнoм прoфессиoнальнoм фoрмате.

Характеристики температуры и влажнoсти вoздуха измеряются на высoте 2 м в тени вдали oт зданий и деревьев.
Скoрoсть ветра измеряется на высoте 10 м (на урoвне рoста челoвека скoрoсть ветра ниже в 1.5-2 раза). Если метеoстанция нахoдится в гoрoде или в лесу, тo скoрoсть ветра занижена на 2-4 м/с пo сравнению с oткрытым местoм. Скoрoсть ветра над акватoриями крупных рек и oзёр, а также на вершинах хoлмoв на 2-5 м/с выше, чем в oбычных услoвиях.
Атмoсфернoе давление в разных тoчках местнoсти мoжет значительнo oтличаться oт давления на метеoстанции, в зависимoсти oт услoвий рельефа (при пoдъёме на 10 м давление пoнижается примернo на 1 мм рт.ст.).